Time,TemperatureF,DewpointF,PressureIn,WindDirection,WindDirectionDegrees,WindSpeedMPH,WindSpeedGustMPH,Humidity,HourlyPrecipIn,Conditions,Clouds,dailyrainin,SoftwareType,DateUTC
2014-08-01 00:01:00,66.6,62.6,30.11,SSE,162,0.0,11.0,87,0.00,,,0.00,Wunderground v.1.13,2014-08-01 04:01:00,
2014-08-01 00:02:00,66.6,62.6,30.11,SSE,162,0.0,11.0,87,0.00,,,0.00,Wunderground v.1.13,2014-08-01 04:02:00,
2014-08-01 00:04:00,66.5,62.5,30.11,SSE,162,0.0,11.0,87,0.00,,,0.00,Wunderground v.1.13,2014-08-01 04:04:00,
2014-08-01 00:05:00,66.5,62.2,30.11,SSE,162,0.0,11.0,86,0.00,,,0.00,Wunderground v.1.13,2014-08-01 04:05:00,
2014-08-01 00:09:00,66.4,62.4,30.11,SSE,162,0.0,11.0,87,0.00,,,0.00,Wunderground v.1.13,2014-08-01 04:09:00,
2014-08-01 00:14:00,66.3,62.3,30.11,SSE,162,0.0,11.0,87,0.00,,,0.00,Wunderground v.1.13,2014-08-01 04:14:00,
2014-08-01 00:29:00,65.9,61.9,30.11,SSE,162,0.0,11.0,87,0.00,,,0.00,Wunderground v.1.13,2014-08-01 04:29:00,
2014-08-01 00:34:00,65.8,61.8,30.11,SSE,162,0.0,11.0,87,0.00,,,0.00,Wunderground v.1.13,2014-08-01 04:34:00,
2014-08-01 00:39:00,65.7,61.7,30.10,SSE,162,0.0,11.0,87,0.00,,,0.00,Wunderground v.1.13,2014-08-01 04:39:00,
2014-08-01 00:44:00,65.6,61.6,30.10,SSE,162,0.0,11.0,87,0.00,,,0.00,Wunderground v.1.13,2014-08-01 04:44:00,
2014-08-01 00:49:00,65.4,61.4,30.11,SSE,162,0.0,11.0,87,0.00,,,0.00,Wunderground v.1.13,2014-08-01 04:49:00,
2014-08-01 00:54:00,65.2,61.6,30.11,SSE,162,0.0,11.0,88,0.00,,,0.00,Wunderground v.1.13,2014-08-01 04:54:00,
2014-08-01 00:59:00,65.1,61.5,30.10,SSE,162,0.0,11.0,88,0.00,,,0.00,Wunderground v.1.13,2014-08-01 04:59:00,
2014-08-01 01:04:00,64.9,61.3,30.10,SSE,162,0.0,11.0,88,0.00,,,0.00,Wunderground v.1.13,2014-08-01 05:04:00,
2014-08-01 01:09:00,64.8,61.2,30.10,SSE,162,0.0,11.0,88,0.00,,,0.00,Wunderground v.1.13,2014-08-01 05:09:00,
2014-08-01 01:14:00,64.7,61.4,30.10,SSE,162,0.0,11.0,89,0.00,,,0.00,Wunderground v.1.13,2014-08-01 05:14:00,
2014-08-01 01:20:00,64.6,61.3,30.10,SSE,162,0.0,11.0,89,0.00,,,0.00,Wunderground v.1.13,2014-08-01 05:20:00,
2014-08-01 01:25:00,64.5,61.2,30.10,SSE,162,0.0,11.0,89,0.00,,,0.00,Wunderground v.1.13,2014-08-01 05:25:00,
2014-08-01 01:30:00,64.3,61.0,30.10,SSE,162,0.0,11.0,89,0.00,,,0.00,Wunderground v.1.13,2014-08-01 05:30:00,
2014-08-01 01:35:00,64.2,61.2,30.09,SSE,162,0.0,11.0,90,0.00,,,0.00,Wunderground v.1.13,2014-08-01 05:35:00,
2014-08-01 01:40:00,64.1,61.1,30.09,SSE,162,0.0,11.0,90,0.00,,,0.00,Wunderground v.1.13,2014-08-01 05:40:00,
2014-08-01 01:46:00,64.0,61.0,30.09,SSE,162,0.0,11.0,90,0.00,,,0.00,Wunderground v.1.13,2014-08-01 05:46:00,
2014-08-01 01:51:00,63.9,60.9,30.09,SSE,162,0.0,11.0,90,0.00,,,0.00,Wunderground v.1.13,2014-08-01 05:51:00,
2014-08-01 01:56:00,63.8,60.8,30.09,SSE,162,0.0,11.0,90,0.00,,,0.00,Wunderground v.1.13,2014-08-01 05:56:00,
2014-08-01 02:01:00,63.7,60.7,30.09,SSE,162,0.0,11.0,90,0.00,,,0.00,Wunderground v.1.13,2014-08-01 06:01:00,
2014-08-01 02:07:00,63.5,60.5,30.09,SSE,162,0.0,11.0,90,0.00,,,0.00,Wunderground v.1.13,2014-08-01 06:07:00,
2014-08-01 02:12:00,63.4,60.4,30.09,SSE,162,0.0,11.0,90,0.00,,,0.00,Wunderground v.1.13,2014-08-01 06:12:00,
2014-08-01 02:17:00,63.2,60.2,30.09,SSE,162,0.0,11.0,90,0.00,,,0.00,Wunderground v.1.13,2014-08-01 06:17:00,
2014-08-01 02:22:00,63.1,60.4,30.09,SSE,162,0.0,11.0,91,0.00,,,0.00,Wunderground v.1.13,2014-08-01 06:22:00,
2014-08-01 02:27:00,63.0,60.3,30.09,SSE,162,0.0,11.0,91,0.00,,,0.00,Wunderground v.1.13,2014-08-01 06:27:00,
2014-08-01 02:33:00,62.9,60.2,30.08,SSE,162,0.0,11.0,91,0.00,,,0.00,Wunderground v.1.13,2014-08-01 06:33:00,
2014-08-01 02:38:00,62.7,60.0,30.09,SSE,162,0.0,11.0,91,0.00,,,0.00,Wunderground v.1.13,2014-08-01 06:38:00,
2014-08-01 02:43:00,62.6,59.9,30.09,SSE,162,0.0,11.0,91,0.00,,,0.00,Wunderground v.1.13,2014-08-01 06:43:00,
2014-08-01 02:48:00,62.5,59.8,30.08,SSE,162,0.0,11.0,91,0.00,,,0.00,Wunderground v.1.13,2014-08-01 06:48:00,
2014-08-01 02:53:00,62.4,59.7,30.08,SSE,162,0.0,11.0,91,0.00,,,0.00,Wunderground v.1.13,2014-08-01 06:53:00,
2014-08-01 02:58:00,62.3,59.6,30.08,SSE,162,0.0,11.0,91,0.00,,,0.00,Wunderground v.1.13,2014-08-01 06:58:00,
2014-08-01 03:04:00,62.3,59.9,30.08,SSE,162,0.0,11.0,92,0.00,,,0.00,Wunderground v.1.13,2014-08-01 07:04:00,
2014-08-01 03:09:00,62.2,59.8,30.08,SSE,162,0.0,11.0,92,0.00,,,0.00,Wunderground v.1.13,2014-08-01 07:09:00,
2014-08-01 03:14:00,62.2,59.8,30.08,SSE,162,0.0,11.0,92,0.00,,,0.00,Wunderground v.1.13,2014-08-01 07:14:00,
2014-08-01 03:19:00,62.2,59.8,30.08,SSE,162,0.0,11.0,92,0.00,,,0.00,Wunderground v.1.13,2014-08-01 07:19:00,
2014-08-01 03:25:00,62.1,59.7,30.08,SSE,162,0.0,11.0,92,0.00,,,0.00,Wunderground v.1.13,2014-08-01 07:25:00,
2014-08-01 03:30:00,62.1,59.7,30.08,SSE,162,0.0,11.0,92,0.00,,,0.00,Wunderground v.1.13,2014-08-01 07:30:00,
2014-08-01 03:35:00,62.0,59.6,30.08,SSE,162,0.0,11.0,92,0.00,,,0.00,Wunderground v.1.13,2014-08-01 07:35:00,
2014-08-01 03:40:00,62.0,60.0,30.08,SSE,162,0.0,11.0,93,0.00,,,0.00,Wunderground v.1.13,2014-08-01 07:40:00,
2014-08-01 03:46:00,62.0,60.0,30.07,SSE,162,0.0,11.0,93,0.00,,,0.00,Wunderground v.1.13,2014-08-01 07:46:00,
2014-08-01 03:51:00,62.0,60.0,30.08,SSE,162,0.0,11.0,93,0.00,,,0.00,Wunderground v.1.13,2014-08-01 07:51:00,
2014-08-01 03:56:00,62.0,60.0,30.08,SSE,162,0.0,11.0,93,0.00,,,0.00,Wunderground v.1.13,2014-08-01 07:56:00,
2014-08-01 04:01:00,61.9,59.9,30.07,SSE,162,0.0,11.0,93,0.00,,,0.00,Wunderground v.1.13,2014-08-01 08:01:00,
2014-08-01 04:06:00,61.9,59.9,30.07,SSE,162,0.0,11.0,93,0.00,,,0.00,Wunderground v.1.13,2014-08-01 08:06:00,
2014-08-01 04:12:00,61.8,59.8,30.08,SSE,162,0.0,11.0,93,0.00,,,0.00,Wunderground v.1.13,2014-08-01 08:12:00,
2014-08-01 04:17:00,61.8,59.8,30.08,SSE,162,0.0,11.0,93,0.00,,,0.00,Wunderground v.1.13,2014-08-01 08:17:00,
2014-08-01 04:23:00,61.7,59.7,30.08,SSE,162,0.0,11.0,93,0.00,,,0.00,Wunderground v.1.13,2014-08-01 08:23:00,
2014-08-01 04:28:00,61.7,59.7,30.08,SSE,162,0.0,11.0,93,0.00,,,0.00,Wunderground v.1.13,2014-08-01 08:28:00,
2014-08-01 04:33:00,61.7,59.7,30.08,SSE,162,0.0,11.0,93,0.00,,,0.00,Wunderground v.1.13,2014-08-01 08:33:00,
2014-08-01 04:38:00,61.7,60.0,30.08,SSE,162,0.0,11.0,94,0.00,,,0.00,Wunderground v.1.13,2014-08-01 08:38:00,
2014-08-01 04:44:00,61.7,60.0,30.08,SSE,162,0.0,11.0,94,0.00,,,0.00,Wunderground v.1.13,2014-08-01 08:44:00,
2014-08-01 04:49:00,61.7,60.0,30.08,SSE,162,0.0,11.0,94,0.00,,,0.00,Wunderground v.1.13,2014-08-01 08:49:00,
2014-08-01 04:54:00,61.7,60.0,30.08,SSE,162,0.0,11.0,94,0.00,,,0.00,Wunderground v.1.13,2014-08-01 08:54:00,
2014-08-01 04:59:00,61.6,59.9,30.08,SSE,162,0.0,11.0,94,0.00,,,0.00,Wunderground v.1.13,2014-08-01 08:59:00,
2014-08-01 05:04:00,61.6,59.9,30.08,SSE,162,0.0,11.0,94,0.00,,,0.00,Wunderground v.1.13,2014-08-01 09:04:00,
2014-08-01 05:09:00,61.5,59.8,30.08,SSE,162,0.0,11.0,94,0.00,,,0.00,Wunderground v.1.13,2014-08-01 09:09:00,
2014-08-01 05:15:00,61.4,59.7,30.08,SSE,162,0.0,11.0,94,0.00,,,0.00,Wunderground v.1.13,2014-08-01 09:15:00,
2014-08-01 05:20:00,61.3,59.6,30.08,SSE,162,0.0,11.0,94,0.00,,,0.00,Wunderground v.1.13,2014-08-01 09:20:00,
2014-08-01 05:26:00,61.2,59.5,30.08,SSE,162,0.0,11.0,94,0.00,,,0.00,Wunderground v.1.13,2014-08-01 09:26:00,
2014-08-01 05:31:00,61.1,59.4,30.09,SSE,162,0.0,11.0,94,0.00,,,0.00,Wunderground v.1.13,2014-08-01 09:31:00,
2014-08-01 05:36:00,61.0,59.3,30.08,SSE,162,0.0,11.0,94,0.00,,,0.00,Wunderground v.1.13,2014-08-01 09:36:00,
2014-08-01 05:41:00,60.9,59.2,30.09,SSE,162,0.0,11.0,94,0.00,,,0.00,Wunderground v.1.13,2014-08-01 09:41:00,
2014-08-01 05:46:00,60.8,59.1,30.09,SSE,162,0.0,11.0,94,0.00,,,0.00,Wunderground v.1.13,2014-08-01 09:46:00,
2014-08-01 05:51:00,60.7,59.0,30.09,SSE,162,0.0,11.0,94,0.00,,,0.00,Wunderground v.1.13,2014-08-01 09:51:00,
2014-08-01 05:56:00,60.6,58.9,30.09,SSE,162,0.0,11.0,94,0.00,,,0.00,Wunderground v.1.13,2014-08-01 09:56:00,
2014-08-01 06:01:00,60.5,58.8,30.09,SSE,162,0.0,11.0,94,0.00,,,0.00,Wunderground v.1.13,2014-08-01 10:01:00,
2014-08-01 06:06:00,60.4,58.7,30.09,SSE,162,0.0,11.0,94,0.00,,,0.00,Wunderground v.1.13,2014-08-01 10:06:00,
2014-08-01 06:11:00,60.3,58.6,30.09,SSE,162,0.0,11.0,94,0.00,,,0.00,Wunderground v.1.13,2014-08-01 10:11:00,
2014-08-01 06:17:00,60.1,58.4,30.10,SSE,162,0.0,11.0,94,0.00,,,0.00,Wunderground v.1.13,2014-08-01 10:17:00,
2014-08-01 06:22:00,60.0,58.3,30.10,SSE,162,0.0,11.0,94,0.00,,,0.00,Wunderground v.1.13,2014-08-01 10:22:00,
2014-08-01 06:27:00,59.9,58.2,30.10,SSE,162,0.0,11.0,94,0.00,,,0.00,Wunderground v.1.13,2014-08-01 10:27:00,
2014-08-01 06:32:00,59.8,58.1,30.10,SSE,162,0.0,11.0,94,0.00,,,0.00,Wunderground v.1.13,2014-08-01 10:32:00,
2014-08-01 06:37:00,59.7,58.0,30.10,SSE,162,0.0,11.0,94,0.00,,,0.00,Wunderground v.1.13,2014-08-01 10:37:00,
2014-08-01 06:43:00,59.6,57.9,30.11,SSE,162,0.0,11.0,94,0.00,,,0.00,Wunderground v.1.13,2014-08-01 10:43:00,
2014-08-01 06:49:00,59.5,57.8,30.11,SSE,162,0.0,11.0,94,0.00,,,0.00,Wunderground v.1.13,2014-08-01 10:49:00,
2014-08-01 06:54:00,59.4,57.7,30.10,SSE,162,0.0,11.0,94,0.00,,,0.00,Wunderground v.1.13,2014-08-01 10:54:00,
2014-08-01 06:59:00,59.3,57.6,30.11,SSE,162,0.0,11.0,94,0.00,,,0.00,Wunderground v.1.13,2014-08-01 10:59:00,
2014-08-01 07:05:00,59.2,57.5,30.11,SSE,162,0.0,11.0,94,0.00,,,0.00,Wunderground v.1.13,2014-08-01 11:05:00,
2014-08-01 07:10:00,59.3,57.6,30.10,SSE,162,0.0,11.0,94,0.00,,,0.00,Wunderground v.1.13,2014-08-01 11:10:00,
2014-08-01 07:15:00,59.2,57.8,30.11,SSE,162,0.0,11.0,95,0.00,,,0.00,Wunderground v.1.13,2014-08-01 11:15:00,
2014-08-01 07:20:00,59.1,57.7,30.11,SSE,162,0.0,11.0,95,0.00,,,0.00,Wunderground v.1.13,2014-08-01 11:20:00,
2014-08-01 07:25:00,59.0,57.6,30.11,SSE,162,0.0,11.0,95,0.00,,,0.00,Wunderground v.1.13,2014-08-01 11:25:00,
2014-08-01 07:31:00,59.2,57.8,30.12,SSE,162,0.0,11.0,95,0.00,,,0.00,Wunderground v.1.13,2014-08-01 11:31:00,
2014-08-01 07:36:00,59.3,57.9,30.12,SSE,162,0.0,11.0,95,0.00,,,0.00,Wunderground v.1.13,2014-08-01 11:36:00,
2014-08-01 07:41:00,59.6,58.2,30.12,SSE,162,0.0,11.0,95,0.00,,,0.00,Wunderground v.1.13,2014-08-01 11:41:00,
2014-08-01 07:47:00,60.2,59.1,30.12,SSE,162,0.0,11.0,96,0.00,,,0.00,Wunderground v.1.13,2014-08-01 11:47:00,
2014-08-01 07:52:00,60.8,59.9,30.12,SSE,162,0.0,11.0,97,0.00,,,0.00,Wunderground v.1.13,2014-08-01 11:52:00,
2014-08-01 07:57:00,61.4,60.5,30.12,SSE,165,0.0,11.0,97,0.00,,,0.00,Wunderground v.1.13,2014-08-01 11:57:00,
2014-08-01 08:02:00,61.6,60.7,30.12,SSE,165,0.0,11.0,97,0.00,,,0.00,Wunderground v.1.13,2014-08-01 12:02:00,
2014-08-01 08:07:00,62.2,61.3,30.12,SSE,165,0.0,11.0,97,0.00,,,0.00,Wunderground v.1.13,2014-08-01 12:07:00,
2014-08-01 08:13:00,62.9,62.0,30.12,South,175,0.0,11.0,97,0.00,,,0.00,Wunderground v.1.13,2014-08-01 12:13:00,
2014-08-01 08:18:00,63.6,62.7,30.12,South,175,0.0,11.0,97,0.00,,,0.00,Wunderground v.1.13,2014-08-01 12:18:00,
2014-08-01 08:23:00,64.3,63.1,30.12,South,175,0.0,11.0,96,0.00,,,0.00,Wunderground v.1.13,2014-08-01 12:23:00,
2014-08-01 08:28:00,64.9,63.7,30.12,South,175,0.0,11.0,96,0.00,,,0.00,Wunderground v.1.13,2014-08-01 12:28:00,
2014-08-01 08:33:00,65.9,64.4,30.12,South,175,0.0,11.0,95,0.00,,,0.00,Wunderground v.1.13,2014-08-01 12:33:00,
2014-08-01 08:39:00,66.7,64.6,30.12,South,175,0.0,11.0,93,0.00,,,0.00,Wunderground v.1.13,2014-08-01 12:39:00,
2014-08-01 08:44:00,67.5,64.8,30.12,South,175,0.0,11.0,91,0.00,,,0.00,Wunderground v.1.13,2014-08-01 12:44:00,
2014-08-01 08:50:00,68.3,64.6,30.12,South,175,0.0,11.0,88,0.00,,,0.00,Wunderground v.1.13,2014-08-01 12:50:00,
2014-08-01 08:55:00,68.9,64.9,30.12,South,175,0.0,11.0,87,0.00,,,0.00,Wunderground v.1.13,2014-08-01 12:55:00,
2014-08-01 09:00:00,69.4,64.7,30.12,South,175,0.0,11.0,85,0.00,,,0.00,Wunderground v.1.13,2014-08-01 13:00:00,
2014-08-01 09:06:00,69.8,64.4,30.12,South,175,0.0,11.0,83,0.00,,,0.00,Wunderground v.1.13,2014-08-01 13:06:00,
2014-08-01 09:12:00,70.4,64.6,30.12,South,175,0.0,11.0,82,0.00,,,0.00,Wunderground v.1.13,2014-08-01 13:12:00,
2014-08-01 09:17:00,70.9,65.1,30.12,SSW,193,0.0,11.0,82,0.00,,,0.00,Wunderground v.1.13,2014-08-01 13:17:00,
2014-08-01 09:22:00,71.2,65.1,30.12,SSW,193,0.0,11.0,81,0.00,,,0.00,Wunderground v.1.13,2014-08-01 13:22:00,
2014-08-01 09:27:00,72.0,65.5,30.12,SSW,193,0.0,11.0,80,0.00,,,0.00,Wunderground v.1.13,2014-08-01 13:27:00,
2014-08-01 09:32:00,73.1,65.8,30.12,SSW,193,0.0,11.0,78,0.00,,,0.00,Wunderground v.1.13,2014-08-01 13:32:00,
2014-08-01 09:38:00,73.3,65.7,30.12,SSW,193,0.0,11.0,77,0.00,,,0.00,Wunderground v.1.13,2014-08-01 13:38:00,
2014-08-01 09:43:00,73.6,65.9,30.12,SSW,193,0.0,11.0,77,0.00,,,0.00,Wunderground v.1.13,2014-08-01 13:43:00,
2014-08-01 09:48:00,73.7,65.7,30.12,SSW,193,0.0,11.0,76,0.00,,,0.00,Wunderground v.1.13,2014-08-01 13:48:00,
2014-08-01 09:54:00,74.1,66.0,30.11,SSW,193,0.0,11.0,76,0.00,,,0.00,Wunderground v.1.13,2014-08-01 13:54:00,
2014-08-01 09:59:00,74.6,66.5,30.11,SSW,193,0.0,11.0,76,0.00,,,0.00,Wunderground v.1.13,2014-08-01 13:59:00,
2014-08-01 10:04:00,74.9,66.4,30.11,SSW,192,0.0,11.0,75,0.00,,,0.00,Wunderground v.1.13,2014-08-01 14:04:00,
2014-08-01 10:09:00,75.0,66.1,30.11,South,189,0.0,11.0,74,0.00,,,0.00,Wunderground v.1.13,2014-08-01 14:09:00,
2014-08-01 10:14:00,75.0,66.1,30.12,South,189,0.0,11.0,74,0.00,,,0.00,Wunderground v.1.13,2014-08-01 14:14:00,
2014-08-01 10:20:00,74.8,65.6,30.12,South,189,0.0,11.0,73,0.00,,,0.00,Wunderground v.1.13,2014-08-01 14:20:00,
2014-08-01 10:25:00,74.8,65.6,30.12,South,188,1.0,1.0,73,0.00,,,0.00,Wunderground v.1.13,2014-08-01 14:25:00,